Time,TemperatureF,DewpointF,PressureIn,WindDirection,WindDirectionDegrees,WindSpeedMPH,WindSpeedGustMPH,Humidity,HourlyPrecipIn,Conditions,Clouds,dailyrainin,SoftwareType,DateUTC
2013-03-07 00:00:00,38.3,30.8,30.01,NNE,21,1.0,8.0,74,0.00,,---,0.00,VWS V14.01,2013-03-07 05:00:00,
2013-03-07 00:01:00,38.2,30.3,30.01,WSW,242,1.0,2.0,73,0.00,,---,0.00,VWS V14.01,2013-03-07 05:01:00,
2013-03-07 00:06:00,38.2,30.7,30.01,WNW,283,2.0,2.0,74,0.00,,---,0.00,VWS V14.01,2013-03-07 05:06:00,
2013-03-07 00:11:00,38.0,30.5,30.01,West,281,0.0,2.0,74,0.00,,---,0.00,VWS V14.01,2013-03-07 05:11:00,
2013-03-07 00:16:00,37.9,30.4,30.01,ESE,121,1.0,3.0,74,0.00,,---,0.00,VWS V14.01,2013-03-07 05:16:00,
2013-03-07 00:21:00,37.9,30.4,30.01,WNW,284,0.0,3.0,74,0.00,,---,0.00,VWS V14.01,2013-03-07 05:21:00,
2013-03-07 00:26:00,37.9,30.4,30.01,WNW,287,1.0,3.0,74,0.00,,---,0.00,VWS V14.01,2013-03-07 05:26:00,
2013-03-07 00:30:00,37.4,30.2,30.03,WNW,286,2.0,4.0,75,0.00,,---,0.00,VWS V14.01,2013-03-07 05:30:00,
2013-03-07 00:31:00,37.9,30.7,30.01,WNW,284,1.0,2.0,75,0.00,,---,0.00,VWS V14.01,2013-03-07 05:31:00,
2013-03-07 00:37:00,37.9,30.7,30.01,SW,219,1.0,2.0,75,0.00,,---,0.00,VWS V14.01,2013-03-07 05:37:00,
2013-03-07 00:42:00,37.8,30.6,30.01,North,4,2.0,4.0,75,0.00,,---,0.00,VWS V14.01,2013-03-07 05:42:00,
2013-03-07 00:47:00,37.8,30.6,30.01,WNW,291,1.0,4.0,75,0.00,,---,0.00,VWS V14.01,2013-03-07 05:47:00,
2013-03-07 00:52:00,37.9,30.4,30.01,WNW,288,2.0,4.0,74,0.00,,---,0.00,VWS V14.01,2013-03-07 05:52:00,
2013-03-07 00:57:00,37.8,30.6,30.01,West,280,0.0,6.0,75,0.00,,---,0.00,VWS V14.01,2013-03-07 05:57:00,
2013-03-07 01:00:00,37.3,30.4,30.03,WNW,283,0.0,4.0,76,0.00,,---,0.00,VWS V14.01,2013-03-07 06:00:00,
2013-03-07 01:02:00,37.8,30.6,30.02,WSW,256,2.0,2.0,75,0.00,,---,0.00,VWS V14.01,2013-03-07 06:02:00,
2013-03-07 01:07:00,37.7,30.5,30.02,WNW,301,1.0,3.0,75,0.00,,---,0.00,VWS V14.01,2013-03-07 06:07:00,
2013-03-07 01:12:00,37.7,30.5,30.02,NW,325,1.0,3.0,75,0.00,,---,0.00,VWS V14.01,2013-03-07 06:12:00,
2013-03-07 01:17:00,37.7,30.8,30.02,West,281,1.0,3.0,76,0.00,,---,0.00,VWS V14.01,2013-03-07 06:17:00,
2013-03-07 01:22:00,37.6,30.4,30.03,WNW,287,0.0,4.0,75,0.00,,---,0.00,VWS V14.01,2013-03-07 06:22:00,
2013-03-07 01:28:00,37.4,30.2,30.03,North,352,0.0,4.0,75,0.00,,---,0.00,VWS V14.01,2013-03-07 06:28:00,
2013-03-07 01:30:00,36.8,30.3,30.04,West,270,2.0,3.0,77,0.00,,---,0.00,VWS V14.01,2013-03-07 06:30:00,
2013-03-07 01:33:00,37.4,30.2,30.03,West,271,1.0,2.0,75,0.00,,---,0.00,VWS V14.01,2013-03-07 06:33:00,
2013-03-07 01:38:00,37.3,30.4,30.03,WNW,301,0.0,3.0,76,0.00,,---,0.00,VWS V14.01,2013-03-07 06:38:00,
2013-03-07 01:43:00,37.3,30.1,30.03,North,11,1.0,4.0,75,0.00,,---,0.00,VWS V14.01,2013-03-07 06:43:00,
2013-03-07 01:48:00,37.2,30.4,30.03,WNW,284,1.0,4.0,76,0.00,,---,0.00,VWS V14.01,2013-03-07 06:48:00,
2013-03-07 01:53:00,37.2,30.4,30.03,WNW,288,2.0,4.0,76,0.00,,---,0.00,VWS V14.01,2013-03-07 06:53:00,
2013-03-07 01:58:00,37.3,30.4,30.03,WNW,282,1.0,4.0,76,0.00,,---,0.00,VWS V14.01,2013-03-07 06:58:00,
2013-03-07 02:00:00,36.5,30.0,30.05,West,263,1.0,3.0,77,0.00,,---,0.00,VWS V14.01,2013-03-07 07:00:00,
2013-03-07 02:03:00,37.3,30.1,30.03,WSW,252,1.0,2.0,75,0.00,,---,0.00,VWS V14.01,2013-03-07 07:03:00,
2013-03-07 02:08:00,37.3,30.1,30.04,WSW,251,1.0,3.0,75,0.00,,---,0.00,VWS V14.01,2013-03-07 07:08:00,
2013-03-07 02:13:00,37.1,30.2,30.04,West,281,1.0,3.0,76,0.00,,---,0.00,VWS V14.01,2013-03-07 07:13:00,
2013-03-07 02:18:00,37.0,30.1,30.04,WNW,282,0.0,3.0,76,0.00,,---,0.00,VWS V14.01,2013-03-07 07:18:00,
2013-03-07 02:23:00,36.9,30.0,30.05,West,280,0.0,3.0,76,0.00,,---,0.00,VWS V14.01,2013-03-07 07:23:00,
2013-03-07 02:28:00,36.9,30.0,30.04,West,272,2.0,3.0,76,0.00,,---,0.00,VWS V14.01,2013-03-07 07:28:00,
2013-03-07 02:30:00,36.3,29.8,30.04,West,271,1.0,3.0,77,0.00,,---,0.00,VWS V14.01,2013-03-07 07:30:00,
2013-03-07 02:34:00,36.9,30.4,30.04,WSW,255,1.0,2.0,77,0.00,,---,0.00,VWS V14.01,2013-03-07 07:34:00,
2013-03-07 02:39:00,36.8,30.3,30.04,West,276,1.0,2.0,77,0.00,,---,0.00,VWS V14.01,2013-03-07 07:39:00,
2013-03-07 02:44:00,36.8,30.0,30.04,ESE,117,1.0,3.0,76,0.00,,---,0.00,VWS V14.01,2013-03-07 07:44:00,
2013-03-07 02:49:00,36.8,30.3,30.04,West,276,1.0,3.0,77,0.00,,---,0.00,VWS V14.01,2013-03-07 07:49:00,
2013-03-07 02:54:00,36.7,30.2,30.04,NE,50,2.0,3.0,77,0.00,,---,0.00,VWS V14.01,2013-03-07 07:54:00,
2013-03-07 02:59:00,36.6,30.1,30.04,West,263,1.0,3.0,77,0.00,,---,0.00,VWS V14.01,2013-03-07 07:59:00,
2013-03-07 03:00:00,35.9,29.7,30.05,West,280,1.0,2.0,78,0.00,,---,0.00,VWS V14.01,2013-03-07 08:00:00,
2013-03-07 03:04:00,36.5,30.0,30.05,West,263,0.0,2.0,77,0.00,,---,0.00,VWS V14.01,2013-03-07 08:04:00,
2013-03-07 03:09:00,36.5,30.3,30.04,West,270,1.0,2.0,78,0.00,,---,0.00,VWS V14.01,2013-03-07 08:09:00,
2013-03-07 03:14:00,36.5,30.0,30.05,WNW,291,1.0,3.0,77,0.00,,---,0.00,VWS V14.01,2013-03-07 08:14:00,
2013-03-07 03:19:00,36.5,30.0,30.04,ESE,112,1.0,3.0,77,0.00,,---,0.00,VWS V14.01,2013-03-07 08:19:00,
2013-03-07 03:25:00,36.5,30.0,30.04,SW,226,1.0,3.0,77,0.00,,---,0.00,VWS V14.01,2013-03-07 08:25:00,
2013-03-07 03:30:00,36.3,29.8,30.04,West,271,1.0,3.0,77,0.00,,---,0.00,VWS V14.01,2013-03-07 08:30:00,
2013-03-07 03:35:00,36.3,29.8,30.05,WNW,286,2.0,2.0,77,0.00,,---,0.00,VWS V14.01,2013-03-07 08:35:00,
2013-03-07 03:40:00,36.3,29.8,30.05,WNW,284,1.0,2.0,77,0.00,,---,0.00,VWS V14.01,2013-03-07 08:40:00,
2013-03-07 03:45:00,36.3,29.8,30.05,WNW,286,1.0,2.0,77,0.00,,---,0.00,VWS V14.01,2013-03-07 08:45:00,
2013-03-07 03:50:00,36.3,30.1,30.04,WNW,285,0.0,2.0,78,0.00,,---,0.00,VWS V14.01,2013-03-07 08:50:00,
2013-03-07 03:55:00,36.1,29.6,30.04,SSW,195,0.0,2.0,77,0.00,,---,0.00,VWS V14.01,2013-03-07 08:55:00,
2013-03-07 04:00:00,35.9,29.7,30.05,WNW,282,0.0,1.0,78,0.00,,---,0.00,VWS V14.01,2013-03-07 09:00:00,
2013-03-07 04:05:00,35.7,29.8,30.04,West,281,0.0,1.0,79,0.00,,---,0.00,VWS V14.01,2013-03-07 09:05:00,
2013-03-07 04:10:00,35.5,29.6,30.04,ENE,62,1.0,2.0,79,0.00,,---,0.00,VWS V14.01,2013-03-07 09:10:00,
2013-03-07 04:15:00,35.4,29.9,30.04,WNW,295,0.0,2.0,80,0.00,,---,0.00,VWS V14.01,2013-03-07 09:15:00,
2013-03-07 04:21:00,35.3,29.5,30.05,North,350,0.0,2.0,79,0.00,,---,0.00,VWS V14.01,2013-03-07 09:21:00,
2013-03-07 04:26:00,35.2,29.7,30.05,West,262,0.0,2.0,80,0.00,,---,0.00,VWS V14.01,2013-03-07 09:26:00,
2013-03-07 04:30:00,33.9,29.3,30.08,NE,42,0.0,1.0,83,0.00,,---,0.00,VWS V14.01,2013-03-07 09:30:00,
2013-03-07 04:31:00,35.0,29.5,30.05,West,261,0.0,1.0,80,0.00,,---,0.00,VWS V14.01,2013-03-07 09:31:00,
2013-03-07 04:36:00,34.9,29.7,30.05,West,262,0.0,1.0,81,0.00,,---,0.00,VWS V14.01,2013-03-07 09:36:00,
2013-03-07 04:41:00,34.9,29.7,30.06,West,261,1.0,1.0,81,0.00,,---,0.00,VWS V14.01,2013-03-07 09:41:00,
2013-03-07 04:46:00,34.8,29.6,30.06,West,262,0.0,1.0,81,0.00,,---,0.00,VWS V14.01,2013-03-07 09:46:00,
2013-03-07 04:51:00,34.6,29.7,30.07,West,262,0.0,1.0,82,0.00,,---,0.00,VWS V14.01,2013-03-07 09:51:00,
2013-03-07 04:56:00,34.5,29.6,30.07,West,261,0.0,1.0,82,0.00,,---,0.00,VWS V14.01,2013-03-07 09:56:00,
2013-03-07 05:00:00,34.0,29.4,30.09,SW,231,0.0,1.0,83,0.00,,---,0.00,VWS V14.01,2013-03-07 10:00:00,
2013-03-07 05:01:00,34.4,29.8,30.08,West,263,1.0,1.0,83,0.00,,---,0.00,VWS V14.01,2013-03-07 10:01:00,
2013-03-07 05:06:00,34.5,29.6,30.08,West,262,0.0,1.0,82,0.00,,---,0.00,VWS V14.01,2013-03-07 10:06:00,
2013-03-07 05:11:00,34.4,29.5,30.08,NE,43,0.0,1.0,82,0.00,,---,0.00,VWS V14.01,2013-03-07 10:11:00,
2013-03-07 05:16:00,34.3,29.4,30.08,NE,42,0.0,1.0,82,0.00,,---,0.00,VWS V14.01,2013-03-07 10:16:00,
2013-03-07 05:21:00,34.0,29.1,30.08,NE,42,0.0,1.0,82,0.00,,---,0.00,VWS V14.01,2013-03-07 10:21:00,
2013-03-07 05:26:00,33.9,29.3,30.08,NE,43,0.0,1.0,83,0.00,,---,0.00,VWS V14.01,2013-03-07 10:26:00,
2013-03-07 05:30:00,33.6,29.3,30.11,West,277,2.0,2.0,84,0.00,,---,0.00,VWS V14.01,2013-03-07 10:30:00,
2013-03-07 05:32:00,33.8,29.2,30.08,NE,42,0.0,0.0,83,0.00,,---,0.00,VWS V14.01,2013-03-07 10:32:00,
2013-03-07 05:37:00,33.8,29.2,30.08,SE,143,0.0,1.0,83,0.00,,---,0.00,VWS V14.01,2013-03-07 10:37:00,
2013-03-07 05:42:00,33.8,29.2,30.08,SE,143,0.0,1.0,83,0.00,,---,0.00,VWS V14.01,2013-03-07 10:42:00,
2013-03-07 05:47:00,33.8,29.5,30.08,SSW,210,0.0,1.0,84,0.00,,---,0.00,VWS V14.01,2013-03-07 10:47:00,
2013-03-07 05:52:00,33.9,29.6,30.08,SW,231,0.0,1.0,84,0.00,,---,0.00,VWS V14.01,2013-03-07 10:52:00,
2013-03-07 05:57:00,34.0,29.4,30.08,SW,231,0.0,1.0,83,0.00,,---,0.00,VWS V14.01,2013-03-07 10:57:00,
2013-03-07 06:00:00,33.9,29.3,30.11,West,271,0.0,2.0,83,0.00,,---,0.00,VWS V14.01,2013-03-07 11:00:00,
2013-03-07 06:02:00,33.9,29.3,30.09,SW,231,0.0,0.0,83,0.00,,---,0.00,VWS V14.01,2013-03-07 11:02:00,
2013-03-07 06:07:00,33.6,29.0,30.09,SW,231,0.0,0.0,83,0.00,,---,0.00,VWS V14.01,2013-03-07 11:07:00,
2013-03-07 06:12:00,33.5,29.2,30.09,SW,231,1.0,1.0,84,0.00,,---,0.00,VWS V14.01,2013-03-07 11:12:00,
2013-03-07 06:18:00,33.5,29.2,30.10,SW,231,0.0,1.0,84,0.00,,---,0.00,VWS V14.01,2013-03-07 11:18:00,
2013-03-07 06:23:00,33.4,29.4,30.10,SW,233,0.0,1.0,85,0.00,,---,0.00,VWS V14.01,2013-03-07 11:23:00,
2013-03-07 06:28:00,33.5,29.2,30.10,West,275,1.0,2.0,84,0.00,,---,0.00,VWS V14.01,2013-03-07 11:28:00,
2013-03-07 06:30:00,35.9,30.0,30.13,WNW,290,1.0,2.0,79,0.00,,---,0.00,VWS V14.01,2013-03-07 11:30:00,
2013-03-07 06:33:00,33.8,29.2,30.11,West,273,1.0,2.0,83,0.00,,---,0.00,VWS V14.01,2013-03-07 11:33:00,
2013-03-07 06:38:00,34.0,29.4,30.11,West,274,1.0,2.0,83,0.00,,---,0.00,VWS V14.01,2013-03-07 11:38:00,
2013-03-07 06:43:00,33.9,29.3,30.11,West,274,0.0,2.0,83,0.00,,---,0.00,VWS V14.01,2013-03-07 11:43:00,
2013-03-07 06:48:00,33.9,29.3,30.11,West,277,1.0,2.0,83,0.00,,---,0.00,VWS V14.01,2013-03-07 11:48:00,
2013-03-07 06:53:00,34.0,29.4,30.11,West,270,0.0,2.0,83,0.00,,---,0.00,VWS V14.01,2013-03-07 11:53:00,
2013-03-07 06:58:00,33.9,29.3,30.11,West,270,0.0,2.0,83,0.00,,---,0.00,VWS V14.01,2013-03-07 11:58:00,
2013-03-07 07:00:00,37.8,30.6,30.15,WNW,283,1.0,3.0,75,0.00,,---,0.00,VWS V14.01,2013-03-07 12:00:00,
2013-03-07 07:03:00,33.9,29.3,30.12,West,273,1.0,1.0,83,0.00,,---,0.00,VWS V14.01,2013-03-07 12:03:00,
2013-03-07 07:08:00,34.1,29.5,30.12,West,276,1.0,1.0,83,0.00,,---,0.00,VWS V14.01,2013-03-07 12:08:00,
2013-03-07 07:13:00,34.4,29.8,30.12,West,277,0.0,1.0,83,0.00,,---,0.00,VWS V14.01,2013-03-07 12:13:00,
2013-03-07 07:18:00,34.8,29.6,30.12,WNW,286,1.0,2.0,81,0.00,,---,0.00,VWS V14.01,2013-03-07 12:18:00,
2013-03-07 07:23:00,35.4,30.2,30.13,West,281,1.0,2.0,81,0.00,,---,0.00,VWS V14.01,2013-03-07 12:23:00,
2013-03-07 07:28:00,35.7,29.8,30.13,NNW,338,0.0,2.0,79,0.00,,---,0.00,VWS V14.01,2013-03-07 12:28:00,
2013-03-07 07:30:00,39.9,31.3,30.16,West,278,3.0,4.0,71,0.00,,---,0.00,VWS V14.01,2013-03-07 12:30:00,
2013-03-07 07:34:00,36.2,30.3,30.13,West,280,1.0,3.0,79,0.00,,---,0.00,VWS V14.01,2013-03-07 12:34:00,
2013-03-07 07:39:00,36.5,30.3,30.14,West,280,0.0,3.0,78,0.00,,---,0.00,VWS V14.01,2013-03-07 12:39:00,
2013-03-07 07:44:00,36.7,30.2,30.14,West,269,1.0,3.0,77,0.00,,---,0.00,VWS V14.01,2013-03-07 12:44:00,
2013-03-07 07:49:00,37.1,30.6,30.14,West,261,0.0,3.0,77,0.00,,---,0.00,VWS V14.01,2013-03-07 12:49:00,
2013-03-07 07:54:00,37.4,30.2,30.14,SW,217,1.0,3.0,75,0.00,,---,0.00,VWS V14.01,2013-03-07 12:54:00,
2013-03-07 07:59:00,37.7,30.5,30.14,West,276,1.0,3.0,75,0.00,,---,0.00,VWS V14.01,2013-03-07 12:59:00,
2013-03-07 08:00:00,42.3,31.8,30.16,West,272,2.0,6.0,66,0.00,,---,0.00,VWS V14.01,2013-03-07 13:00:00,
2013-03-07 08:04:00,38.1,30.6,30.15,West,281,1.0,3.0,74,0.00,,---,0.00,VWS V14.01,2013-03-07 13:04:00,
2013-03-07 08:09:00,38.5,30.6,30.15,West,276,1.0,4.0,73,0.00,,---,0.00,VWS V14.01,2013-03-07 13:09:00,
2013-03-07 08:14:00,38.8,30.6,30.15,West,278,2.0,4.0,72,0.00,,---,0.00,VWS V14.01,2013-03-07 13:14:00,
2013-03-07 08:20:00,39.2,30.6,30.16,West,274,1.0,4.0,71,0.00,,---,0.00,VWS V14.01,2013-03-07 13:20:00,
2013-03-07 08:25:00,39.5,31.2,30.16,SW,219,0.0,4.0,72,0.00,,---,0.00,VWS V14.01,2013-03-07 13:25:00,
2013-03-07 08:30:00,39.9,31.3,30.16,West,280,3.0,4.0,71,0.00,,---,0.00,VWS V14.01,2013-03-07 13:30:00,
2013-03-07 08:35:00,40.3,31.3,30.16,NNE,26,1.0,6.0,70,0.00,,---,0.00,VWS V14.01,2013-03-07 13:35:00,
2013-03-07 08:40:00,40.7,31.3,30.15,West,278,1.0,6.0,69,0.00,,---,0.00,VWS V14.01,2013-03-07 13:40:00,
2013-03-07 08:45:00,41.0,31.3,30.16,North,6,4.0,6.0,68,0.00,,---,0.00,VWS V14.01,2013-03-07 13:45:00,
2013-03-07 08:50:00,41.2,31.5,30.16,West,269,1.0,6.0,68,0.00,,---,0.00,VWS V14.01,2013-03-07 13:50:00,
2013-03-07 08:55:00,41.8,31.7,30.16,NE,52,1.0,6.0,67,0.00,,---,0.00,VWS V14.01,2013-03-07 13:55:00,
2013-03-07 09:00:00,42.3,31.8,30.16,North,11,2.0,2.0,66,0.00,,---,0.00,VWS V14.01,2013-03-07 14:00:00,
2013-03-07 09:05:00,42.7,31.4,30.16,ENE,65,2.0,6.0,64,0.00,,---,0.00,VWS V14.01,2013-03-07 14:05:00,
2013-03-07 09:11:00,43.0,31.7,30.16,NNW,328,1.0,9.0,64,0.00,,---,0.00,VWS V14.01,2013-03-07 14:11:00,
2013-03-07 09:16:00,43.4,32.0,30.16,WNW,288,2.0,9.0,64,0.00,,---,0.00,VWS V14.01,2013-03-07 14:16:00,
2013-03-07 09:21:00,43.5,32.2,30.16,East,85,1.0,9.0,64,0.00,,---,0.00,VWS V14.01,2013-03-07 14:21:00,
2013-03-07 09:26:00,43.6,31.9,30.16,WNW,285,3.0,9.0,63,0.00,,---,0.00,VWS V14.01,2013-03-07 14:26:00,
2013-03-07 09:30:00,46.4,32.9,30.16,ENE,61,4.0,7.0,59,0.00,,---,0.00,VWS V14.01,2013-03-07 14:30:00,
2013-03-07 09:31:00,43.7,32.0,30.16,North,5,0.0,2.0,63,0.00,,---,0.00,VWS V14.01,2013-03-07 14:31:00,
2013-03-07 09:36:00,44.0,31.8,30.16,WSW,242,1.0,5.0,62,0.00,,---,0.00,VWS V14.01,2013-03-07 14:36:00,
2013-03-07 09:41:00,44.4,32.6,30.16,NE,38,5.0,5.0,63,0.00,,---,0.00,VWS V14.01,2013-03-07 14:41:00,
2013-03-07 09:46:00,44.6,32.4,30.16,NW,304,1.0,7.0,62,0.00,,---,0.00,VWS V14.01,2013-03-07 14:46:00,
2013-03-07 09:51:00,44.9,32.3,30.16,East,81,3.0,9.0,61,0.00,,---,0.00,VWS V14.01,2013-03-07 14:51:00,
2013-03-07 09:56:00,45.1,32.5,30.16,NW,325,1.0,9.0,61,0.00,,---,0.00,VWS V14.01,2013-03-07 14:56:00,
2013-03-07 10:00:00,47.4,32.5,30.16,ENE,61,4.0,9.0,56,0.00,,---,0.00,VWS V14.01,2013-03-07 15:00:00,
2013-03-07 10:01:00,45.1,32.1,30.16,ENE,58,4.0,5.0,60,0.00,,---,0.00,VWS V14.01,2013-03-07 15:01:00,
2013-03-07 10:06:00,45.1,32.1,30.16,NNE,14,5.0,6.0,60,0.00,,---,0.00,VWS V14.01,2013-03-07 15:06:00,
2013-03-07 10:11:00,45.4,32.3,30.16,WNW,290,1.0,6.0,60,0.00,,---,0.00,VWS V14.01,2013-03-07 15:11:00,
2013-03-07 10:16:00,45.7,32.6,30.16,West,281,0.0,6.0,60,0.00,,---,0.00,VWS V14.01,2013-03-07 15:16:00,
2013-03-07 10:21:00,46.1,32.2,30.16,NNE,26,2.0,7.0,58,0.00,,---,0.00,VWS V14.01,2013-03-07 15:21:00,
2013-03-07 10:27:00,46.1,32.2,30.16,NNW,340,4.0,7.0,58,0.00,,---,0.00,VWS V14.01,2013-03-07 15:27:00,
2013-03-07 10:30:00,48.4,31.6,30.15,NNE,12,6.0,10.0,52,0.00,,---,0.00,VWS V14.01,2013-03-07 15:30:00,
2013-03-07 10:32:00,46.7,32.7,30.16,WNW,297,1.0,4.0,58,0.00,,---,0.00,VWS V14.01,2013-03-07 15:32:00,
2013-03-07 10:37:00,47.2,32.3,30.16,WNW,283,1.0,4.0,56,0.00,,---,0.00,VWS V14.01,2013-03-07 15:37:00,
2013-03-07 10:42:00,47.1,32.2,30.16,WNW,302,6.0,6.0,56,0.00,,---,0.00,VWS V14.01,2013-03-07 15:42:00,
2013-03-07 10:47:00,47.0,32.6,30.15,ENE,61,3.0,6.0,57,0.00,,---,0.00,VWS V14.01,2013-03-07 15:47:00,
2013-03-07 10:52:00,47.2,32.8,30.15,SE,129,1.0,9.0,57,0.00,,---,0.00,VWS V14.01,2013-03-07 15:52:00,
2013-03-07 10:57:00,47.3,32.4,30.16,ESE,113,2.0,9.0,56,0.00,,---,0.00,VWS V14.01,2013-03-07 15:57:00,
2013-03-07 11:00:00,48.6,31.8,30.15,North,1,1.0,11.0,52,0.00,,---,0.00,VWS V14.01,2013-03-07 16:00:00,
2013-03-07 11:02:00,47.4,32.1,30.16,ENE,70,2.0,10.0,55,0.00,,---,0.00,VWS V14.01,2013-03-07 16:02:00,
2013-03-07 11:07:00,47.4,32.5,30.16,NE,56,2.0,10.0,56,0.00,,---,0.00,VWS V14.01,2013-03-07 16:07:00,
2013-03-07 11:12:00,47.8,32.9,30.16,West,267,2.0,10.0,56,0.00,,---,0.00,VWS V14.01,2013-03-07 16:12:00,
2013-03-07 11:17:00,48.0,31.7,30.16,ENE,63,4.0,10.0,53,0.00,,---,0.00,VWS V14.01,2013-03-07 16:17:00,
2013-03-07 11:22:00,48.2,31.9,30.15,NE,51,3.0,10.0,53,0.00,,---,0.00,VWS V14.01,2013-03-07 16:22:00,
2013-03-07 11:27:00,48.5,32.2,30.15,NE,56,2.0,10.0,53,0.00,,---,0.00,VWS V14.01,2013-03-07 16:27:00,
2013-03-07 11:30:00,49.5,32.1,30.14,West,280,4.0,7.0,51,0.00,,---,0.00,VWS V14.01,2013-03-07 16:30:00,
2013-03-07 11:32:00,47.9,31.6,30.15,NNE,16,2.0,11.0,53,0.00,,---,0.00,VWS V14.01,2013-03-07 16:32:00,
2013-03-07 11:38:00,48.5,32.6,30.15,NE,37,1.0,11.0,54,0.00,,---,0.00,VWS V14.01,2013-03-07 16:38:00,
2013-03-07 11:43:00,49.1,33.2,30.15,WNW,284,3.0,11.0,54,0.00,,---,0.00,VWS V14.01,2013-03-07 16:43:00,
2013-03-07 11:48:00,49.3,32.4,30.15,West,270,2.0,11.0,52,0.00,,---,0.00,VWS V14.01,2013-03-07 16:48:00,
2013-03-07 11:53:00,49.3,32.4,30.15,NE,51,1.0,11.0,52,0.00,,---,0.00,VWS V14.01,2013-03-07 16:53:00,
2013-03-07 11:58:00,48.9,32.5,30.15,NE,40,7.0,11.0,53,0.00,,---,0.00,VWS V14.01,2013-03-07 16:58:00,
2013-03-07 12:00:00,48.4,31.6,30.13,NNW,344,1.0,10.0,52,0.00,,---,0.00,VWS V14.01,2013-03-07 17:00:00,
2013-03-07 12:03:00,48.5,32.2,30.15,WNW,287,4.0,7.0,53,0.00,,---,0.00,VWS V14.01,2013-03-07 17:03:00,
2013-03-07 12:08:00,49.1,32.7,30.15,NW,326,0.0,7.0,53,0.00,,---,0.00,VWS V14.01,2013-03-07 17:08:00,
2013-03-07 12:13:00,49.7,32.3,30.15,West,281,5.0,7.0,51,0.00,,---,0.00,VWS V14.01,2013-03-07 17:13:00,
2013-03-07 12:18:00,49.4,32.5,30.15,NE,47,1.0,7.0,52,0.00,,---,0.00,VWS V14.01,2013-03-07 17:18:00,
2013-03-07 12:23:00,49.5,32.1,30.14,WNW,288,1.0,7.0,51,0.00,,---,0.00,VWS V14.01,2013-03-07 17:23:00,
2013-03-07 12:28:00,49.5,32.1,30.14,West,281,2.0,7.0,51,0.00,,---,0.00,VWS V14.01,2013-03-07 17:28:00,
2013-03-07 12:30:00,49.3,32.4,30.12,ESE,103,2.0,8.0,52,0.00,,---,0.00,VWS V14.01,2013-03-07 17:30:00,
2013-03-07 12:33:00,49.3,32.0,30.14,West,276,1.0,10.0,51,0.00,,---,0.00,VWS V14.01,2013-03-07 17:33:00,
2013-03-07 12:38:00,49.1,31.8,30.14,WNW,288,0.0,10.0,51,0.00,,---,0.00,VWS V14.01,2013-03-07 17:38:00,
2013-03-07 12:44:00,48.9,31.6,30.14,NNE,19,2.0,10.0,51,0.00,,---,0.00,VWS V14.01,2013-03-07 17:44:00,
2013-03-07 12:49:00,48.9,31.6,30.13,WNW,287,2.0,10.0,51,0.00,,---,0.00,VWS V14.01,2013-03-07 17:49:00,
2013-03-07 12:54:00,48.9,31.6,30.13,NE,46,1.0,10.0,51,0.00,,---,0.00,VWS V14.01,2013-03-07 17:54:00,
2013-03-07 12:59:00,48.4,31.6,30.13,NW,305,3.0,10.0,52,0.00,,---,0.00,VWS V14.01,2013-03-07 17:59:00,
2013-03-07 13:00:00,49.8,31.4,30.12,North,352,3.0,10.0,49,0.00,,---,0.00,VWS V14.01,2013-03-07 18:00:00,
2013-03-07 13:04:00,48.6,31.8,30.13,NNE,33,1.0,6.0,52,0.00,,---,0.00,VWS V14.01,2013-03-07 18:04:00,
2013-03-07 13:09:00,49.3,32.0,30.12,NNE,16,2.0,8.0,51,0.00,,---,0.00,VWS V14.01,2013-03-07 18:09:00,
2013-03-07 13:14:00,49.2,31.4,30.12,NE,56,3.0,8.0,50,0.00,,---,0.00,VWS V14.01,2013-03-07 18:14:00,
2013-03-07 13:19:00,48.9,31.6,30.12,North,352,2.0,8.0,51,0.00,,---,0.00,VWS V14.01,2013-03-07 18:19:00,
2013-03-07 13:24:00,48.8,31.5,30.12,North,359,3.0,8.0,51,0.00,,---,0.00,VWS V14.01,2013-03-07 18:24:00,
2013-03-07 13:29:00,49.2,32.3,30.12,WNW,288,1.0,8.0,52,0.00,,---,0.00,VWS V14.01,2013-03-07 18:29:00,
2013-03-07 13:30:00,50.3,32.4,30.11,ENE,75,2.0,9.0,50,0.00,,---,0.00,VWS V14.01,2013-03-07 18:30:00,
2013-03-07 13:34:00,49.9,32.0,30.12,SSE,152,1.0,5.0,50,0.00,,---,0.00,VWS V14.01,2013-03-07 18:34:00,
2013-03-07 13:40:00,49.9,32.0,30.12,NW,311,2.0,10.0,50,0.00,,---,0.00,VWS V14.01,2013-03-07 18:40:00,
2013-03-07 13:45:00,49.9,32.5,30.12,WNW,291,3.0,10.0,51,0.00,,---,0.00,VWS V14.01,2013-03-07 18:45:00,
2013-03-07 13:50:00,49.9,32.0,30.12,NE,51,3.0,10.0,50,0.00,,---,0.00,VWS V14.01,2013-03-07 18:50:00,
2013-03-07 13:55:00,49.9,32.0,30.12,WNW,297,1.0,10.0,50,0.00,,---,0.00,VWS V14.01,2013-03-07 18:55:00,
2013-03-07 14:00:00,49.8,31.4,30.12,NNW,341,6.0,6.0,49,0.00,,---,0.00,VWS V14.01,2013-03-07 19:00:00,
2013-03-07 14:05:00,49.4,31.6,30.12,North,9,5.0,9.0,50,0.00,,---,0.00,VWS V14.01,2013-03-07 19:05:00,
2013-03-07 14:10:00,49.5,31.6,30.12,WNW,283,1.0,9.0,50,0.00,,---,0.00,VWS V14.01,2013-03-07 19:10:00,
2013-03-07 14:15:00,50.1,32.2,30.11,NNE,22,2.0,9.0,50,0.00,,---,0.00,VWS V14.01,2013-03-07 19:15:00,
2013-03-07 14:20:00,50.2,32.3,30.11,West,276,1.0,9.0,50,0.00,,---,0.00,VWS V14.01,2013-03-07 19:20:00,
2013-03-07 14:25:00,50.1,31.7,30.12,NE,36,1.0,9.0,49,0.00,,---,0.00,VWS V14.01,2013-03-07 19:25:00,
2013-03-07 14:30:00,50.3,31.9,30.11,NE,51,5.0,5.0,49,0.00,,---,0.00,VWS V14.01,2013-03-07 19:30:00,
2013-03-07 14:35:00,49.8,31.4,30.12,West,276,4.0,12.0,49,0.00,,---,0.00,VWS V14.01,2013-03-07 19:35:00,
2013-03-07 14:41:00,49.5,31.1,30.12,NE,41,3.0,12.0,49,0.00,,---,0.00,VWS V14.01,2013-03-07 19:41:00,
2013-03-07 14:46:00,49.0,31.7,30.12,WNW,289,1.0,12.0,51,0.00,,---,0.00,VWS V14.01,2013-03-07 19:46:00,
2013-03-07 14:51:00,49.4,31.6,30.11,ENE,77,4.0,12.0,50,0.00,,---,0.00,VWS V14.01,2013-03-07 19:51:00,
2013-03-07 14:56:00,49.7,31.8,30.11,WNW,293,2.0,12.0,50,0.00,,---,0.00,VWS V14.01,2013-03-07 19:56:00,
2013-03-07 15:00:00,49.5,31.1,30.12,NNE,26,3.0,9.0,49,0.00,,---,0.00,VWS V14.01,2013-03-07 20:00:00,
2013-03-07 15:01:00,50.1,32.2,30.12,WNW,283,1.0,4.0,50,0.00,,---,0.00,VWS V14.01,2013-03-07 20:01:00,
2013-03-07 15:06:00,50.5,31.6,30.11,North,351,2.0,4.0,48,0.00,,---,0.00,VWS V14.01,2013-03-07 20:06:00,
2013-03-07 15:11:00,50.3,31.9,30.11,SE,135,1.0,6.0,49,0.00,,---,0.00,VWS V14.01,2013-03-07 20:11:00,
2013-03-07 15:16:00,50.5,31.6,30.12,NE,44,2.0,7.0,48,0.00,,---,0.00,VWS V14.01,2013-03-07 20:16:00,
2013-03-07 15:21:00,50.3,31.9,30.12,WNW,285,1.0,8.0,49,0.00,,---,0.00,VWS V14.01,2013-03-07 20:21:00,
2013-03-07 15:26:00,50.4,32.0,30.12,WNW,302,0.0,8.0,49,0.00,,---,0.00,VWS V14.01,2013-03-07 20:26:00,
2013-03-07 15:30:00,49.5,31.6,30.12,West,273,3.0,7.0,50,0.00,,---,0.00,VWS V14.01,2013-03-07 20:30:00,
2013-03-07 15:31:00,49.8,30.9,30.12,WNW,285,3.0,6.0,48,0.00,,---,0.00,VWS V14.01,2013-03-07 20:31:00,
2013-03-07 15:36:00,49.5,31.6,30.12,SE,130,1.0,6.0,50,0.00,,---,0.00,VWS V14.01,2013-03-07 20:36:00,
2013-03-07 15:42:00,49.0,31.2,30.12,WNW,302,3.0,6.0,50,0.00,,---,0.00,VWS V14.01,2013-03-07 20:42:00,
2013-03-07 15:47:00,49.0,31.7,30.11,SSW,210,3.0,6.0,51,0.00,,---,0.00,VWS V14.01,2013-03-07 20:47:00,
2013-03-07 15:52:00,49.7,31.8,30.12,WNW,288,1.0,6.0,50,0.00,,---,0.00,VWS V14.01,2013-03-07 20:52:00,
2013-03-07 15:57:00,49.8,30.9,30.12,North,5,5.0,9.0,48,0.00,,---,0.00,VWS V14.01,2013-03-07 20:57:00,
2013-03-07 16:00:00,49.1,31.3,30.13,WNW,293,0.0,12.0,50,0.00,,---,0.00,VWS V14.01,2013-03-07 21:00:00,
2013-03-07 16:02:00,49.5,31.6,30.12,NE,41,2.0,6.0,50,0.00,,---,0.00,VWS V14.01,2013-03-07 21:02:00,
2013-03-07 16:07:00,49.6,31.7,30.12,North,9,1.0,7.0,50,0.00,,---,0.00,VWS V14.01,2013-03-07 21:07:00,
2013-03-07 16:12:00,49.3,31.5,30.12,WSW,253,2.0,7.0,50,0.00,,---,0.00,VWS V14.01,2013-03-07 21:12:00,
2013-03-07 16:18:00,49.0,31.2,30.12,West,280,1.0,7.0,50,0.00,,---,0.00,VWS V14.01,2013-03-07 21:18:00,
2013-03-07 16:23:00,49.3,31.5,30.12,WNW,294,0.0,7.0,50,0.00,,---,0.00,VWS V14.01,2013-03-07 21:23:00,
2013-03-07 16:28:00,49.5,31.6,30.12,SSW,207,1.0,7.0,50,0.00,,---,0.00,VWS V14.01,2013-03-07 21:28:00,
2013-03-07 16:30:00,48.7,30.9,30.14,WNW,292,1.0,8.0,50,0.00,,---,0.00,VWS V14.01,2013-03-07 21:30:00,
2013-03-07 16:33:00,49.5,31.1,30.12,NW,309,1.0,5.0,49,0.00,,---,0.00,VWS V14.01,2013-03-07 21:33:00,
2013-03-07 16:38:00,49.7,30.8,30.12,WSW,250,3.0,6.0,48,0.00,,---,0.00,VWS V14.01,2013-03-07 21:38:00,
2013-03-07 16:43:00,49.5,31.1,30.12,WNW,290,2.0,8.0,49,0.00,,---,0.00,VWS V14.01,2013-03-07 21:43:00,
2013-03-07 16:48:00,49.6,31.2,30.12,ESE,110,1.0,8.0,49,0.00,,---,0.00,VWS V14.01,2013-03-07 21:48:00,
2013-03-07 16:53:00,49.6,31.2,30.13,NE,41,0.0,8.0,49,0.00,,---,0.00,VWS V14.01,2013-03-07 21:53:00,
2013-03-07 16:58:00,49.2,30.9,30.13,NE,48,1.0,12.0,49,0.00,,---,0.00,VWS V14.01,2013-03-07 21:58:00,
2013-03-07 17:00:00,47.4,30.2,30.15,NNE,21,1.0,6.0,51,0.00,,---,0.00,VWS V14.01,2013-03-07 22:00:00,
2013-03-07 17:03:00,49.1,31.3,30.13,North,11,2.0,5.0,50,0.00,,---,0.00,VWS V14.01,2013-03-07 22:03:00,
2013-03-07 17:09:00,48.9,31.1,30.13,NNW,337,2.0,5.0,50,0.00,,---,0.00,VWS V14.01,2013-03-07 22:09:00,
2013-03-07 17:14:00,48.9,30.6,30.13,NE,36,1.0,8.0,49,0.00,,---,0.00,VWS V14.01,2013-03-07 22:14:00,
2013-03-07 17:19:00,48.9,30.6,30.13,South,181,2.0,8.0,49,0.00,,---,0.00,VWS V14.01,2013-03-07 22:19:00,
2013-03-07 17:24:00,48.9,31.1,30.13,SE,132,1.0,8.0,50,0.00,,---,0.00,VWS V14.01,2013-03-07 22:24:00,
2013-03-07 17:29:00,48.7,30.9,30.14,WNW,285,1.0,8.0,50,0.00,,---,0.00,VWS V14.01,2013-03-07 22:29:00,
2013-03-07 17:30:00,45.6,30.4,30.16,NW,316,0.0,4.0,55,0.00,,---,0.00,VWS V14.01,2013-03-07 22:30:00,
2013-03-07 17:34:00,48.7,30.9,30.14,NE,51,1.0,5.0,50,0.00,,---,0.00,VWS V14.01,2013-03-07 22:34:00,
2013-03-07 17:39:00,48.5,31.2,30.14,NW,312,2.0,5.0,51,0.00,,---,0.00,VWS V14.01,2013-03-07 22:39:00,
2013-03-07 17:44:00,48.3,31.0,30.15,ENE,71,3.0,6.0,51,0.00,,---,0.00,VWS V14.01,2013-03-07 22:44:00,
2013-03-07 17:50:00,48.0,30.8,30.15,ENE,76,1.0,6.0,51,0.00,,---,0.00,VWS V14.01,2013-03-07 22:50:00,
2013-03-07 17:54:00,47.7,30.5,30.15,North,357,2.0,6.0,51,0.00,,---,0.00,VWS V14.01,2013-03-07 22:54:00,
2013-03-07 18:00:00,47.4,30.2,30.15,NW,307,1.0,6.0,51,0.00,,---,0.00,VWS V14.01,2013-03-07 23:00:00,
2013-03-07 18:05:00,47.1,30.4,30.15,NW,316,0.0,2.0,52,0.00,,---,0.00,VWS V14.01,2013-03-07 23:05:00,
2013-03-07 18:10:00,46.8,30.6,30.15,NNE,13,0.0,4.0,53,0.00,,---,0.00,VWS V14.01,2013-03-07 23:10:00,
2013-03-07 18:15:00,46.5,30.8,30.15,North,4,1.0,4.0,54,0.00,,---,0.00,VWS V14.01,2013-03-07 23:15:00,
2013-03-07 18:20:00,46.1,29.9,30.15,North,358,2.0,4.0,53,0.00,,---,0.00,VWS V14.01,2013-03-07 23:20:00,
2013-03-07 18:25:00,45.9,30.7,30.16,SE,136,1.0,4.0,55,0.00,,---,0.00,VWS V14.01,2013-03-07 23:25:00,
2013-03-07 18:30:00,45.6,30.4,30.16,NW,316,0.0,0.0,55,0.00,,---,0.00,VWS V14.01,2013-03-07 23:30:00,
2013-03-07 18:35:00,45.3,30.5,30.16,WNW,288,0.0,1.0,56,0.00,,---,0.00,VWS V14.01,2013-03-07 23:35:00,
2013-03-07 18:40:00,45.1,30.4,30.16,NNE,15,0.0,3.0,56,0.00,,---,0.00,VWS V14.01,2013-03-07 23:40:00,
2013-03-07 18:45:00,44.9,30.2,30.16,NNE,15,0.0,3.0,56,0.00,,---,0.00,VWS V14.01,2013-03-07 23:45:00,
2013-03-07 18:50:00,44.7,30.9,30.17,NNE,15,0.0,3.0,58,0.00,,---,0.00,VWS V14.01,2013-03-07 23:50:00,
2013-03-07 18:55:00,44.2,30.0,30.17,SSE,159,0.0,3.0,57,0.00,,---,0.00,VWS V14.01,2013-03-07 23:55:00,
2013-03-07 19:00:00,40.3,30.2,30.18,SSW,194,0.0,1.0,67,0.00,,---,0.00,VWS V14.01,2013-03-08 00:00:00,
2013-03-07 19:01:00,43.8,30.8,30.17,SSE,159,0.0,0.0,60,0.00,,---,0.00,VWS V14.01,2013-03-08 00:01:00,
2013-03-07 19:06:00,43.5,30.5,30.17,SSW,194,0.0,0.0,60,0.00,,---,0.00,VWS V14.01,2013-03-08 00:06:00,
2013-03-07 19:11:00,43.2,30.3,30.17,SSW,194,0.0,1.0,60,0.00,,---,0.00,VWS V14.01,2013-03-08 00:11:00,
2013-03-07 19:16:00,42.8,30.3,30.17,SSW,194,0.0,1.0,61,0.00,,---,0.00,VWS V14.01,2013-03-08 00:16:00,
2013-03-07 19:21:00,42.4,30.3,30.17,SSW,194,0.0,1.0,62,0.00,,---,0.00,VWS V14.01,2013-03-08 00:21:00,
2013-03-07 19:26:00,42.0,30.3,30.18,SSW,194,0.0,1.0,63,0.00,,---,0.00,VWS V14.01,2013-03-08 00:26:00,
2013-03-07 19:30:00,40.8,29.6,30.19,SW,233,0.0,2.0,64,0.00,,---,0.00,VWS V14.01,2013-03-08 00:30:00,
2013-03-07 19:31:00,41.7,30.4,30.18,SSW,194,0.0,0.0,64,0.00,,---,0.00,VWS V14.01,2013-03-08 00:31:00,
2013-03-07 19:36:00,41.3,30.4,30.18,SSW,194,1.0,1.0,65,0.00,,---,0.00,VWS V14.01,2013-03-08 00:36:00,
2013-03-07 19:41:00,41.0,30.5,30.18,SSW,194,0.0,1.0,66,0.00,,---,0.00,VWS V14.01,2013-03-08 00:41:00,
2013-03-07 19:46:00,40.7,30.6,30.18,SSW,194,0.0,1.0,67,0.00,,---,0.00,VWS V14.01,2013-03-08 00:46:00,
2013-03-07 19:51:00,40.5,30.4,30.18,SSW,194,0.0,1.0,67,0.00,,---,0.00,VWS V14.01,2013-03-08 00:51:00,
2013-03-07 19:57:00,40.4,30.3,30.18,SSW,194,0.0,1.0,67,0.00,,---,0.00,VWS V14.01,2013-03-08 00:57:00,
2013-03-07 20:00:00,41.2,28.8,30.20,NNW,337,0.0,5.0,61,0.00,,---,0.00,VWS V14.01,2013-03-08 01:00:00,
2013-03-07 20:02:00,40.3,30.6,30.18,SSW,194,0.0,0.0,68,0.00,,---,0.00,VWS V14.01,2013-03-08 01:02:00,
2013-03-07 20:07:00,40.4,30.3,30.18,SSW,194,0.0,1.0,67,0.00,,---,0.00,VWS V14.01,2013-03-08 01:07:00,
2013-03-07 20:12:00,40.5,30.0,30.19,SW,226,1.0,1.0,66,0.00,,---,0.00,VWS V14.01,2013-03-08 01:12:00,
2013-03-07 20:17:00,40.6,29.8,30.19,WNW,286,1.0,2.0,65,0.00,,---,0.00,VWS V14.01,2013-03-08 01:17:00,
2013-03-07 20:22:00,40.8,30.0,30.19,SSE,153,1.0,2.0,65,0.00,,---,0.00,VWS V14.01,2013-03-08 01:22:00,
2013-03-07 20:28:00,40.8,29.6,30.19,SW,234,1.0,2.0,64,0.00,,---,0.00,VWS V14.01,2013-03-08 01:28:00,
2013-03-07 20:30:00,40.4,28.4,30.21,NNW,335,0.0,3.0,62,0.00,,---,0.00,VWS V14.01,2013-03-08 01:30:00,
2013-03-07 20:33:00,40.9,29.3,30.19,WSW,256,1.0,1.0,63,0.00,,---,0.00,VWS V14.01,2013-03-08 01:33:00,
2013-03-07 20:38:00,41.2,29.2,30.20,WNW,286,1.0,5.0,62,0.00,,---,0.00,VWS V14.01,2013-03-08 01:38:00,
2013-03-07 20:43:00,41.2,28.8,30.20,NNW,346,0.0,5.0,61,0.00,,---,0.00,VWS V14.01,2013-03-08 01:43:00,
2013-03-07 20:48:00,41.2,28.4,30.20,WNW,301,1.0,5.0,60,0.00,,---,0.00,VWS V14.01,2013-03-08 01:48:00,
2013-03-07 20:53:00,41.3,28.9,30.20,WNW,291,0.0,5.0,61,0.00,,---,0.00,VWS V14.01,2013-03-08 01:53:00,
2013-03-07 20:58:00,41.2,28.4,30.20,NNW,337,0.0,5.0,60,0.00,,---,0.00,VWS V14.01,2013-03-08 01:58:00,
2013-03-07 21:00:00,39.5,28.4,30.21,WNW,284,0.0,2.0,64,0.00,,---,0.00,VWS V14.01,2013-03-08 02:00:00,
2013-03-07 21:03:00,41.1,28.7,30.20,North,352,0.0,3.0,61,0.00,,---,0.00,VWS V14.01,2013-03-08 02:03:00,
2013-03-07 21:08:00,40.9,28.5,30.20,North,358,0.0,3.0,61,0.00,,---,0.00,VWS V14.01,2013-03-08 02:08:00,
2013-03-07 21:14:00,40.7,28.3,30.21,West,276,1.0,3.0,61,0.00,,---,0.00,VWS V14.01,2013-03-08 02:14:00,
2013-03-07 21:19:00,40.7,28.7,30.21,West,276,0.0,3.0,62,0.00,,---,0.00,VWS V14.01,2013-03-08 02:19:00,
2013-03-07 21:24:00,40.6,29.0,30.21,WNW,286,0.0,3.0,63,0.00,,---,0.00,VWS V14.01,2013-03-08 02:24:00,
2013-03-07 21:29:00,40.4,28.4,30.21,NW,311,1.0,3.0,62,0.00,,---,0.00,VWS V14.01,2013-03-08 02:29:00,
2013-03-07 21:30:00,38.7,28.0,30.21,North,350,0.0,2.0,65,0.00,,---,0.00,VWS V14.01,2013-03-08 02:30:00,
2013-03-07 21:34:00,40.4,28.4,30.21,SW,224,0.0,2.0,62,0.00,,---,0.00,VWS V14.01,2013-03-08 02:34:00,
2013-03-07 21:39:00,40.2,28.6,30.21,SW,226,0.0,2.0,63,0.00,,---,0.00,VWS V14.01,2013-03-08 02:39:00,
2013-03-07 21:44:00,39.9,28.7,30.21,SW,226,0.0,2.0,64,0.00,,---,0.00,VWS V14.01,2013-03-08 02:44:00,
2013-03-07 21:49:00,39.8,28.6,30.21,West,277,1.0,2.0,64,0.00,,---,0.00,VWS V14.01,2013-03-08 02:49:00,
2013-03-07 21:54:00,39.7,28.5,30.21,NE,36,0.0,2.0,64,0.00,,---,0.00,VWS V14.01,2013-03-08 02:54:00,
2013-03-07 21:59:00,39.6,28.4,30.21,WNW,284,0.0,2.0,64,0.00,,---,0.00,VWS V14.01,2013-03-08 02:59:00,
2013-03-07 22:00:00,37.3,28.1,30.22,North,349,0.0,1.0,69,0.00,,---,0.00,VWS V14.01,2013-03-08 03:00:00,
2013-03-07 22:04:00,39.5,28.4,30.21,West,278,0.0,1.0,64,0.00,,---,0.00,VWS V14.01,2013-03-08 03:04:00,
2013-03-07 22:10:00,39.5,28.7,30.21,West,281,0.0,2.0,65,0.00,,---,0.00,VWS V14.01,2013-03-08 03:10:00,
2013-03-07 22:15:00,39.4,28.2,30.21,North,359,1.0,2.0,64,0.00,,---,0.00,VWS V14.01,2013-03-08 03:15:00,
2013-03-07 22:20:00,39.2,28.4,30.21,North,359,0.0,2.0,65,0.00,,---,0.00,VWS V14.01,2013-03-08 03:20:00,
2013-03-07 22:25:00,38.9,28.1,30.21,North,358,0.0,2.0,65,0.00,,---,0.00,VWS V14.01,2013-03-08 03:25:00,
2013-03-07 22:30:00,38.7,28.0,30.21,North,350,0.0,2.0,65,0.00,,---,0.00,VWS V14.01,2013-03-08 03:30:00,
2013-03-07 22:35:00,38.4,28.4,30.21,North,350,0.0,1.0,67,0.00,,---,0.00,VWS V14.01,2013-03-08 03:35:00,
2013-03-07 22:40:00,38.2,28.2,30.22,North,349,0.0,1.0,67,0.00,,---,0.00,VWS V14.01,2013-03-08 03:40:00,
2013-03-07 22:45:00,37.9,28.3,30.22,North,349,0.0,1.0,68,0.00,,---,0.00,VWS V14.01,2013-03-08 03:45:00,
2013-03-07 22:50:00,37.7,28.5,30.22,North,349,0.0,1.0,69,0.00,,---,0.00,VWS V14.01,2013-03-08 03:50:00,
2013-03-07 22:55:00,37.6,28.0,30.22,North,349,0.0,1.0,68,0.00,,---,0.00,VWS V14.01,2013-03-08 03:55:00,
2013-03-07 23:00:00,37.3,28.1,30.22,NNW,348,0.0,0.0,69,0.00,,---,0.00,VWS V14.01,2013-03-08 04:00:00,
2013-03-07 23:05:00,37.2,28.3,30.22,NNW,348,0.0,1.0,70,0.00,,---,0.00,VWS V14.01,2013-03-08 04:05:00,
2013-03-07 23:10:00,37.1,27.9,30.22,NNW,348,0.0,1.0,69,0.00,,---,0.00,VWS V14.01,2013-03-08 04:10:00,
2013-03-07 23:16:00,37.0,27.8,30.22,SW,217,0.0,1.0,69,0.00,,---,0.00,VWS V14.01,2013-03-08 04:16:00,
2013-03-07 23:21:00,36.9,28.0,30.22,SW,217,0.0,1.0,70,0.00,,---,0.00,VWS V14.01,2013-03-08 04:21:00,
2013-03-07 23:26:00,36.8,28.0,30.22,SW,217,0.0,1.0,70,0.00,,---,0.00,VWS V14.01,2013-03-08 04:26:00,
2013-03-07 23:30:00,36.1,27.3,30.22,West,267,0.0,2.0,70,0.00,,---,0.00,VWS V14.01,2013-03-08 04:30:00,
2013-03-07 23:31:00,36.6,27.8,30.22,SW,217,0.0,0.0,70,0.00,,---,0.00,VWS V14.01,2013-03-08 04:31:00,
2013-03-07 23:36:00,36.3,27.5,30.21,SW,216,0.0,1.0,70,0.00,,---,0.00,VWS V14.01,2013-03-08 04:36:00,
2013-03-07 23:41:00,36.1,27.3,30.22,SW,217,0.0,1.0,70,0.00,,---,0.00,VWS V14.01,2013-03-08 04:41:00,
2013-03-07 23:46:00,36.1,27.6,30.21,SW,219,0.0,1.0,71,0.00,,---,0.00,VWS V14.01,2013-03-08 04:46:00,
2013-03-07 23:51:00,36.1,27.6,30.21,WSW,239,0.0,1.0,71,0.00,,---,0.00,VWS V14.01,2013-03-08 04:51:00,
2013-03-07 23:56:00,36.2,27.4,30.22,SW,228,0.0,1.0,70,0.00,,---,0.00,VWS V14.01,2013-03-08 04:56:00,